Location: Huntsville
(41.2590°N, 111.7678°W)
Time: 05:45:17
(UTC+00:00)

SR - Pass Details

Date: 21 June 2021
Orbit: 577 x 878 km, 66.7° (Epoch: 26 July)

Event Time Altitude Azimuth Distance (km) Brightness Sun altitude
Rises 09:27:54 0° 319° (NW) 3,234 ? -19.7°
Reaches altitude 10° 09:30:41 10° 308° (NW) 2,249 ? -19.4°
Enters shadow 09:34:40 27° 258° (WSW) 1,340 ? -19.0°
